Location: Shannon
(40.5500°S, 175.4167°E)
Time: 20:56:19
(UTC+00:00)

Cosmos 1959 Rocket - Pass Details

Date: 17 November 2025
Orbit: 947 x 996 km, 83.0° (Epoch: 14 December)

Event Time Altitude Azimuth Distance (km) Brightness Sun altitude
Exits shadow 13:52:44 52° 11° (N) 1,180 4.6 -25.1°
Maximum altitude 13:54:20 79° 85° (E) 983 4.4 -25.0°
Drops below altitude 10° 14:00:30 10° 170° (S) 2,703 7.7 -24.4°
Sets 14:03:01 0° 171° (S) 3,654 8.6 -24.2°
